ARIANE 44LP DEB, 26810

Orbit data source: Space-Track

ARIANE 44LP DEB, 26810 is space debris in HEO originally from a launch on Sun, 11 Dec 1988 UTC launched from the French Guiana (FRGUI). Debris objects in space refer to the collection of defunct objects orbiting the Earth. Examples of debris include non-operational satellites, rocket bodies, and fragments generated from explosions, collisions, or faulty payload assembly.

Loading next visibility...
Identifier
26810, 1988-109M
Orbit
HEO
Last TLE update
2 days ago
Origin
Manufacturer
Unknown
Mission
Spacecraft
Bus & Motor
Unknown
Mass
Unknown
Launch date (UTC)
1988-12-11 (37 years ago)
Launch vehicle
Unknown
Launch site
French Guiana (FRGUI)
Object type
Payload
Rocket body
Debris
Shape & HBR
Unknown
Radar Cross Section
Medium (>0.1 m² and <1 m²)

Expand to show TLE details & history

TLE from 2 days ago
0 ARIANE 44LP DEB
1 26810U 88109M   25182.93586562 -.00000960  00000-0 -51520-1 0  9996
2 26810   6.1551 214.8617 7141192 118.2587 322.3932  2.16375997104854
Epoch: 2025-07-01T22:27Z
TLE epoch observation values (Epoch: 2025-07-01T22:27:38.789Z)
Latitude
-0.85537°
Longitude
-49.96182°
Altitude
14,927.029 km
Speed
4.651 km/s
True Right ascension
13h 48m 41s
True Declination
0° 51' 13"
Sunlit
Object was in daylight at epoch
Visualization orbit readout
Latitude
-6.11532°
Longitude
-127.37078°
Altitude
29,299.878 km
Speed
2.561 km/s
Apparent Right ascension
08h 58m 31s
Apparent Declination
-11° 20' 39"
Sunlit
Object is in daylight
Visualization observer readout
Local Sidereal Time
23:30:05
Azimuth
60.145° ENE
Elevation
-46.028°
Doppler factor
1
Orbital elements
Apogee altitude
36,912.073 km
Perigee altitude
841.804 km
Semi-major axis
25,255.075 km
Eccentricity
0.71412
Inclination
6.1551°
RAAN
214.8617°
Arg. of periapsis
118.2587°
True anomaly
Unknown
Mean anomaly
322.3932°
Eccentric anomaly
Unknown
Mean motion
0.54078 °/min
Orbital period
665.71 mins
BSTAR
-0.05152
Loading maneuver chart data...
Loading SW <> Apogee altitude chart data...
Loading historical data...
Loading historical data...
Loading historical data...
Loading historical data...
Loading historical data...
Loading historical data...
Loading historical data...

ARIANE 44LP DEB Visibility forecast

Observer location: undefined°, undefined°

Span
Click to sort rows by Start time (UTC) header in descending order
Start Az.
Max El. time (UTC)
Max El. Az.
Max El.
End time (UTC)
End Az.
406 mins2025-07-03 20:50:32.339Z230.508° WSW2025-07-03 22:48:32.339Z217.465° SW24.759°2025-07-04 03:36:32.339Z246.621° WSW
24 mins2025-07-04 06:26:32.339Z236.052° WSW2025-07-04 06:43:32.339Z210.87° SW13.573°2025-07-04 06:50:32.339Z184.182° SSW
|